Location: Ferchesar
(52.6477°N, 12.4298°E)
Time: 13:53:28
(UTC+01:00)

Altair - Pass Details

Date: 15 December 2021
Orbit: 1501 x 1683 km, 47.2° (Epoch: 27 January)

Event Time Altitude Azimuth Distance (km) Brightness Sun altitude
Rises 20:00:30 0° 285° (WNW) 4,708 11.1 -35.6°
Reaches altitude 10° 20:04:56 10° 267° (W) 3,694 10.2 -36.3°
Maximum altitude 20:10:18 17° 231° (SW) 3,131 9.4 -37.1°
Drops below altitude 10° 20:15:38 10° 194° (SSW) 3,646 9.5 -37.9°
Enters shadow 20:17:58 - 183° (S) 4,128 9.7 -38.2°
